Time,TemperatureF,DewpointF,PressureIn,WindDirection,WindDirectionDegrees,WindSpeedMPH,WindSpeedGustMPH,Humidity,HourlyPrecipIn,Conditions,Clouds,dailyrainin,SoftwareType,DateUTC
2013-06-25 00:04:00,60.1,55.0,29.32,SSE,158,0.0,0.0,83,0.00,,,0.00,WUHU216HW,2013-06-25 07:04:00,
2013-06-25 00:09:00,60.1,55.0,29.32,SSE,158,0.0,0.0,83,0.00,,,0.00,WUHU216HW,2013-06-25 07:09:00,
2013-06-25 00:29:00,60.1,55.0,29.31,East,90,0.0,0.0,83,0.00,,,0.00,WUHU216HW,2013-06-25 07:29:00,
2013-06-25 00:34:00,59.9,54.8,29.31,East,90,0.0,0.0,83,0.00,,,0.00,WUHU216HW,2013-06-25 07:34:00,
2013-06-25 00:39:00,59.9,54.8,29.31,East,90,0.0,0.0,83,0.00,,,0.00,WUHU216HW,2013-06-25 07:39:00,
2013-06-25 00:59:00,60.1,55.0,29.31,East,90,0.0,0.0,83,0.00,,,0.00,WUHU216HW,2013-06-25 07:59:00,
2013-06-25 01:04:00,59.9,54.8,29.31,East,90,0.0,0.0,83,0.00,,,0.00,WUHU216HW,2013-06-25 08:04:00,
2013-06-25 01:09:00,59.9,54.8,29.31,East,90,0.0,0.0,83,0.00,,,0.00,WUHU216HW,2013-06-25 08:09:00,
2013-06-25 01:29:00,59.4,54.5,29.31,East,90,0.0,0.0,84,0.00,,,0.00,WUHU216HW,2013-06-25 08:29:00,
2013-06-25 01:34:00,59.4,54.5,29.31,East,90,0.0,0.0,84,0.00,,,0.00,WUHU216HW,2013-06-25 08:34:00,
2013-06-25 01:39:00,59.4,54.5,29.31,East,90,0.0,0.0,84,0.00,,,0.00,WUHU216HW,2013-06-25 08:39:00,
2013-06-25 01:59:00,58.9,54.4,29.31,NE,45,0.0,0.0,85,0.00,,,0.00,WUHU216HW,2013-06-25 08:59:00,
2013-06-25 02:04:00,58.9,54.4,29.31,NE,45,0.0,0.0,85,0.00,,,0.00,WUHU216HW,2013-06-25 09:04:00,
2013-06-25 02:09:00,58.9,54.4,29.31,NE,45,0.0,0.0,85,0.00,,,0.00,WUHU216HW,2013-06-25 09:09:00,
2013-06-25 02:29:00,58.5,54.0,29.32,NW,315,0.0,0.0,85,0.00,,,0.00,WUHU216HW,2013-06-25 09:29:00,
2013-06-25 02:34:00,58.5,54.0,29.32,NW,315,0.0,0.0,85,0.00,,,0.00,WUHU216HW,2013-06-25 09:34:00,
2013-06-25 02:39:00,58.5,54.0,29.32,NW,315,0.0,0.0,85,0.00,,,0.00,WUHU216HW,2013-06-25 09:39:00,
2013-06-25 02:59:00,59.0,54.9,29.33,SW,225,0.0,0.0,86,0.00,,,0.00,WUHU216HW,2013-06-25 09:59:00,
2013-06-25 03:04:00,59.0,54.9,29.33,SW,225,0.0,0.0,86,0.00,,,0.00,WUHU216HW,2013-06-25 10:04:00,
2013-06-25 03:09:00,59.0,54.9,29.33,SW,225,0.0,0.0,86,0.00,,,0.00,WUHU216HW,2013-06-25 10:09:00,
2013-06-25 03:29:00,59.2,55.1,29.32,WNW,293,0.0,0.0,86,0.01,,,0.00,WUHU216HW,2013-06-25 10:29:00,
2013-06-25 03:34:00,59.2,55.1,29.32,WNW,293,0.0,0.0,86,0.01,,,0.01,WUHU216HW,2013-06-25 10:34:00,
2013-06-25 03:39:00,59.2,55.1,29.32,WNW,293,0.0,0.0,86,0.01,,,0.01,WUHU216HW,2013-06-25 10:39:00,
2013-06-25 03:59:00,58.9,54.7,29.33,ESE,113,0.0,0.0,86,0.01,,,0.01,WUHU216HW,2013-06-25 10:59:00,
2013-06-25 04:04:00,58.9,54.7,29.33,ESE,113,0.0,0.0,86,0.01,,,0.01,WUHU216HW,2013-06-25 11:04:00,
2013-06-25 04:09:00,58.9,54.7,29.33,ESE,113,0.0,0.0,86,0.01,,,0.01,WUHU216HW,2013-06-25 11:09:00,
2013-06-25 04:29:00,58.5,54.6,29.33,West,270,0.0,0.0,87,0.00,,,0.01,WUHU216HW,2013-06-25 11:29:00,
2013-06-25 04:34:00,58.5,54.6,29.33,West,270,0.0,0.0,87,0.00,,,0.01,WUHU216HW,2013-06-25 11:34:00,
2013-06-25 04:39:00,58.5,54.6,29.33,West,270,0.0,0.0,87,0.00,,,0.01,WUHU216HW,2013-06-25 11:39:00,
2013-06-25 04:59:00,58.3,54.5,29.34,NW,315,0.0,0.0,87,0.00,,,0.01,WUHU216HW,2013-06-25 11:59:00,
2013-06-25 05:04:00,58.3,54.5,29.34,NW,315,0.0,0.0,87,0.00,,,0.01,WUHU216HW,2013-06-25 12:04:00,
2013-06-25 05:09:00,58.3,54.5,29.34,NW,315,0.0,0.0,87,0.00,,,0.01,WUHU216HW,2013-06-25 12:09:00,
2013-06-25 05:29:00,58.5,54.6,29.34,NW,315,0.0,0.0,87,0.00,,,0.01,WUHU216HW,2013-06-25 12:29:00,
2013-06-25 05:34:00,58.5,54.6,29.34,NW,315,0.0,0.0,87,0.00,,,0.01,WUHU216HW,2013-06-25 12:34:00,
2013-06-25 05:39:00,58.5,54.6,29.34,NW,315,0.0,0.0,87,0.00,,,0.01,WUHU216HW,2013-06-25 12:39:00,
2013-06-25 05:59:00,58.5,54.6,29.35,NW,315,0.0,0.0,87,0.00,,,0.01,WUHU216HW,2013-06-25 12:59:00,
2013-06-25 06:04:00,58.7,54.8,29.35,NW,315,0.0,0.0,87,0.00,,,0.01,WUHU216HW,2013-06-25 13:04:00,
2013-06-25 06:09:00,58.7,54.8,29.35,NW,315,0.0,0.0,87,0.00,,,0.01,WUHU216HW,2013-06-25 13:09:00,
2013-06-25 06:29:00,59.0,55.5,29.34,ENE,68,0.0,0.0,88,0.00,,,0.01,WUHU216HW,2013-06-25 13:29:00,
2013-06-25 06:34:00,59.0,55.5,29.34,ENE,68,0.0,0.0,88,0.00,,,0.01,WUHU216HW,2013-06-25 13:34:00,
2013-06-25 06:39:00,59.0,55.5,29.34,ENE,68,0.0,0.0,88,0.00,,,0.01,WUHU216HW,2013-06-25 13:39:00,
2013-06-25 06:59:00,59.4,55.5,29.34,South,180,0.4,0.4,87,0.00,,,0.01,WUHU216HW,2013-06-25 13:59:00,
2013-06-25 07:04:00,59.4,55.5,29.34,South,180,0.9,0.9,87,0.00,,,0.01,WUHU216HW,2013-06-25 14:04:00,
2013-06-25 07:09:00,59.4,55.5,29.34,South,180,0.9,0.9,87,0.00,,,0.01,WUHU216HW,2013-06-25 14:09:00,
2013-06-25 07:29:00,59.8,55.9,29.34,SSE,158,0.2,0.2,87,0.01,,,0.01,WUHU216HW,2013-06-25 14:29:00,
2013-06-25 07:34:00,59.8,55.9,29.34,South,180,0.0,0.2,87,0.01,,,0.02,WUHU216HW,2013-06-25 14:34:00,
2013-06-25 07:39:00,59.8,55.9,29.34,South,180,0.0,0.2,87,0.01,,,0.02,WUHU216HW,2013-06-25 14:39:00,
2013-06-25 07:59:00,60.1,56.3,29.35,South,180,0.4,0.4,87,0.05,,,0.02,WUHU216HW,2013-06-25 14:59:00,
2013-06-25 08:04:00,60.1,56.3,29.35,South,180,0.4,0.4,87,0.05,,,0.06,WUHU216HW,2013-06-25 15:04:00,
2013-06-25 08:09:00,60.1,56.3,29.35,South,180,0.4,0.4,87,0.05,,,0.06,WUHU216HW,2013-06-25 15:09:00,
2013-06-25 08:29:00,61.0,57.2,29.36,ESE,113,0.7,0.7,87,0.05,,,0.06,WUHU216HW,2013-06-25 15:29:00,
2013-06-25 08:34:00,60.8,57.0,29.36,SE,135,0.7,0.7,87,0.05,,,0.07,WUHU216HW,2013-06-25 15:34:00,
2013-06-25 08:39:00,60.8,57.0,29.36,SE,135,0.7,0.7,87,0.05,,,0.07,WUHU216HW,2013-06-25 15:39:00,
2013-06-25 08:59:00,61.2,57.3,29.36,NNE,23,0.0,0.0,87,0.02,,,0.07,WUHU216HW,2013-06-25 15:59:00,
2013-06-25 09:04:00,61.4,57.5,29.36,NE,45,0.0,0.0,87,0.02,,,0.08,WUHU216HW,2013-06-25 16:04:00,
2013-06-25 09:09:00,61.4,57.5,29.36,NE,45,0.0,0.0,87,0.02,,,0.08,WUHU216HW,2013-06-25 16:09:00,
2013-06-25 09:29:00,62.1,57.5,29.37,SSE,158,0.7,0.7,85,0.02,,,0.08,WUHU216HW,2013-06-25 16:29:00,
2013-06-25 09:34:00,62.1,57.9,29.37,SSE,158,0.4,0.7,86,0.02,,,0.09,WUHU216HW,2013-06-25 16:34:00,
2013-06-25 09:39:00,62.1,57.9,29.37,SSE,158,0.4,0.7,86,0.02,,,0.09,WUHU216HW,2013-06-25 16:39:00,
2013-06-25 09:59:00,63.0,58.1,29.36,East,90,1.3,1.3,84,0.01,,,0.09,WUHU216HW,2013-06-25 16:59:00,
2013-06-25 10:04:00,63.0,58.1,29.36,SE,135,2.0,2.0,84,0.01,,,0.10,WUHU216HW,2013-06-25 17:04:00,
2013-06-25 10:09:00,63.0,58.1,29.36,SE,135,2.0,2.0,84,0.01,,,0.10,WUHU216HW,2013-06-25 17:09:00,
2013-06-25 10:29:00,64.4,58.9,29.37,SSE,158,0.0,0.0,82,0.01,,,0.10,WUHU216HW,2013-06-25 17:29:00,
2013-06-25 10:34:00,64.4,58.9,29.37,SSE,158,0.0,0.0,82,0.01,,,0.10,WUHU216HW,2013-06-25 17:34:00,
2013-06-25 10:39:00,64.4,58.9,29.37,SSE,158,0.0,0.0,82,0.01,,,0.10,WUHU216HW,2013-06-25 17:39:00,
2013-06-25 10:59:00,63.0,57.7,29.38,SE,135,0.9,0.9,83,0.05,,,0.10,WUHU216HW,2013-06-25 17:59:00,
2013-06-25 11:04:00,63.0,57.7,29.38,SSE,158,1.6,1.6,83,0.05,,,0.15,WUHU216HW,2013-06-25 18:04:00,
2013-06-25 11:09:00,63.0,57.7,29.38,SSE,158,1.6,1.6,83,0.05,,,0.15,WUHU216HW,2013-06-25 18:09:00,
2013-06-25 11:29:00,64.8,59.2,29.37,ENE,68,1.8,1.8,82,0.06,,,0.15,WUHU216HW,2013-06-25 18:29:00,
2013-06-25 11:34:00,64.8,59.2,29.37,NE,45,1.8,1.8,82,0.06,,,0.16,WUHU216HW,2013-06-25 18:34:00,
2013-06-25 11:39:00,64.8,59.2,29.37,NE,45,1.8,1.8,82,0.06,,,0.16,WUHU216HW,2013-06-25 18:39:00,
2013-06-25 11:59:00,65.3,59.4,29.38,NE,45,0.2,0.2,81,0.01,,,0.16,WUHU216HW,2013-06-25 18:59:00,
2013-06-25 12:04:00,65.3,59.4,29.38,North,0,0.4,0.4,81,0.01,,,0.16,WUHU216HW,2013-06-25 19:04:00,
2013-06-25 12:09:00,65.3,59.4,29.38,North,0,0.4,0.4,81,0.01,,,0.16,WUHU216HW,2013-06-25 19:09:00,
2013-06-25 12:29:00,67.5,60.5,29.38,SW,225,0.2,0.2,78,0.00,,,0.16,WUHU216HW,2013-06-25 19:29:00,
2013-06-25 12:34:00,67.5,60.5,29.38,WSW,248,0.4,0.4,78,0.00,,,0.16,WUHU216HW,2013-06-25 19:34:00,
2013-06-25 12:39:00,67.5,60.5,29.38,WSW,248,0.4,0.4,78,0.00,,,0.16,WUHU216HW,2013-06-25 19:39:00,
2013-06-25 12:59:00,69.5,61.1,29.39,SW,225,1.8,1.8,75,0.00,,,0.16,WUHU216HW,2013-06-25 19:59:00,
2013-06-25 13:04:00,69.5,61.1,29.39,WSW,248,1.8,1.8,75,0.00,,,0.16,WUHU216HW,2013-06-25 20:04:00,
2013-06-25 13:09:00,69.5,61.1,29.39,WSW,248,1.8,1.8,75,0.00,,,0.16,WUHU216HW,2013-06-25 20:09:00,
2013-06-25 13:29:00,69.3,61.4,29.39,NNW,338,0.0,0.0,76,0.01,,,0.16,WUHU216HW,2013-06-25 20:29:00,
2013-06-25 13:34:00,69.3,61.4,29.39,NNW,338,0.0,0.0,76,0.01,,,0.17,WUHU216HW,2013-06-25 20:34:00,
2013-06-25 13:39:00,69.3,61.4,29.39,NNW,338,0.0,0.0,76,0.01,,,0.17,WUHU216HW,2013-06-25 20:39:00,
2013-06-25 13:59:00,64.4,58.1,29.40,SSW,203,1.8,1.8,80,0.21,,,0.17,WUHU216HW,2013-06-25 20:59:00,
2013-06-25 14:04:00,64.6,58.3,29.40,SW,225,0.0,1.8,80,0.21,,,0.37,WUHU216HW,2013-06-25 21:04:00,
2013-06-25 14:09:00,64.6,58.3,29.40,SW,225,0.0,0.0,80,0.21,,,0.37,WUHU216HW,2013-06-25 21:09:00,
2013-06-25 14:29:00,69.7,63.6,29.41,NW,315,2.5,2.5,81,0.22,,,0.37,WUHU216HW,2013-06-25 21:29:00,
2013-06-25 14:34:00,69.7,63.6,29.41,North,0,0.9,2.5,81,0.22,,,0.39,WUHU216HW,2013-06-25 21:34:00,
2013-06-25 14:39:00,69.7,63.6,29.41,North,0,0.9,2.5,81,0.22,,,0.39,WUHU216HW,2013-06-25 21:39:00,
2013-06-25 14:59:00,70.9,61.8,29.42,West,270,0.0,0.0,73,0.02,,,0.39,WUHU216HW,2013-06-25 21:59:00,
2013-06-25 15:04:00,70.9,61.8,29.42,West,270,0.4,0.4,73,0.00,,,0.39,WUHU216HW,2013-06-25 22:04:00,
2013-06-25 15:09:00,70.9,61.8,29.42,West,270,0.4,0.4,73,0.00,,,0.39,WUHU216HW,2013-06-25 22:09:00,
2013-06-25 15:29:00,70.4,60.1,29.43,SSW,203,1.3,1.3,70,0.00,,,0.39,WUHU216HW,2013-06-25 22:29:00,
2013-06-25 15:34:00,70.4,60.1,29.43,WSW,248,0.7,1.3,70,0.00,,,0.39,WUHU216HW,2013-06-25 22:34:00,
2013-06-25 15:39:00,70.4,60.1,29.43,WSW,248,0.7,1.3,70,0.00,,,0.39,WUHU216HW,2013-06-25 22:39:00,
2013-06-25 15:59:00,70.6,59.9,29.44,WSW,248,2.9,2.9,69,0.00,,,0.39,WUHU216HW,2013-06-25 22:59:00,
2013-06-25 16:04:00,70.6,59.9,29.44,WSW,248,2.9,2.9,69,0.00,,,0.39,WUHU216HW,2013-06-25 23:04:00,
2013-06-25 16:09:00,70.6,59.9,29.44,WSW,248,2.9,2.9,69,0.00,,,0.39,WUHU216HW,2013-06-25 23:09:00,
2013-06-25 16:29:00,70.4,58.9,29.44,NW,315,1.8,1.8,67,0.00,,,0.39,WUHU216HW,2013-06-25 23:29:00,
2013-06-25 16:34:00,70.4,58.9,29.44,WSW,248,1.1,1.8,67,0.00,,,0.39,WUHU216HW,2013-06-25 23:34:00,
2013-06-25 16:39:00,70.4,58.9,29.44,WSW,248,1.1,1.1,67,0.00,,,0.39,WUHU216HW,2013-06-25 23:39:00,
2013-06-25 16:59:00,68.8,56.9,29.44,WSW,248,3.4,3.4,66,0.00,,,0.39,WUHU216HW,2013-06-25 23:59:00,
2013-06-25 17:04:00,68.8,56.9,29.44,WSW,248,2.5,3.4,66,0.00,,,0.39,WUHU216HW,2013-06-26 00:04:00,
2013-06-25 17:09:00,68.8,56.9,29.44,WSW,248,2.5,2.5,66,0.00,,,0.39,WUHU216HW,2013-06-26 00:09:00,
2013-06-25 17:29:00,68.8,56.9,29.44,WSW,248,0.2,0.2,66,0.00,,,0.39,WUHU216HW,2013-06-26 00:29:00,
2013-06-25 17:34:00,68.8,56.9,29.44,WSW,248,0.4,0.4,66,0.00,,,0.39,WUHU216HW,2013-06-26 00:34:00,
2013-06-25 17:39:00,68.8,56.9,29.44,WSW,248,0.4,0.4,66,0.00,,,0.39,WUHU216HW,2013-06-26 00:39:00,
2013-06-25 17:59:00,69.3,56.6,29.45,NNW,338,2.5,2.5,64,0.00,,,0.39,WUHU216HW,2013-06-26 00:59:00,
2013-06-25 18:04:00,69.3,56.6,29.45,NNW,338,1.3,2.5,64,0.00,,,0.39,WUHU216HW,2013-06-26 01:04:00,
2013-06-25 18:09:00,69.3,56.6,29.45,NNW,338,1.3,2.5,64,0.00,,,0.39,WUHU216HW,2013-06-26 01:09:00,
2013-06-25 18:29:00,68.9,56.7,29.45,WNW,293,0.4,0.4,65,0.00,,,0.39,WUHU216HW,2013-06-26 01:29:00,
2013-06-25 18:34:00,68.9,56.7,29.45,WNW,293,0.4,0.4,65,0.00,,,0.39,WUHU216HW,2013-06-26 01:34:00,
2013-06-25 18:39:00,68.9,56.7,29.45,WNW,293,0.4,0.4,65,0.00,,,0.39,WUHU216HW,2013-06-26 01:39:00,
2013-06-25 18:59:00,68.4,56.2,29.46,South,180,1.1,1.1,65,0.00,,,0.39,WUHU216HW,2013-06-26 01:59:00,
2013-06-25 19:04:00,68.4,56.2,29.46,South,180,1.1,1.1,65,0.00,,,0.39,WUHU216HW,2013-06-26 02:04:00,
2013-06-25 19:09:00,68.4,56.2,29.46,South,180,1.1,1.1,65,0.00,,,0.39,WUHU216HW,2013-06-26 02:09:00,
2013-06-25 19:29:00,67.1,54.9,29.46,WSW,248,0.4,0.4,65,0.00,,,0.39,WUHU216HW,2013-06-26 02:29:00,
2013-06-25 19:34:00,67.1,54.9,29.46,WSW,248,0.4,0.4,65,0.00,,,0.39,WUHU216HW,2013-06-26 02:34:00,
2013-06-25 19:39:00,67.1,54.9,29.46,WSW,248,0.4,0.4,65,0.00,,,0.39,WUHU216HW,2013-06-26 02:39:00,
2013-06-25 19:59:00,65.9,54.5,29.47,WSW,248,1.8,1.8,67,0.00,,,0.39,WUHU216HW,2013-06-26 02:59:00,
2013-06-25 20:04:00,65.9,54.5,29.47,WSW,248,3.1,3.1,67,0.00,,,0.39,WUHU216HW,2013-06-26 03:04:00,
2013-06-25 20:09:00,65.9,54.5,29.47,WSW,248,3.1,3.1,67,0.00,,,0.39,WUHU216HW,2013-06-26 03:09:00,
2013-06-25 20:29:00,65.0,54.6,29.48,WSW,248,0.0,0.0,69,0.00,,,0.39,WUHU216HW,2013-06-26 03:29:00,
2013-06-25 20:34:00,65.0,54.6,29.48,WSW,248,0.0,0.0,69,0.00,,,0.39,WUHU216HW,2013-06-26 03:34:00,
2013-06-25 20:39:00,65.0,54.6,29.48,WSW,248,0.0,0.0,69,0.00,,,0.39,WUHU216HW,2013-06-26 03:39:00,
2013-06-25 20:59:00,64.3,55.1,29.47,NW,315,0.0,0.0,72,0.00,,,0.39,WUHU216HW,2013-06-26 03:59:00,
2013-06-25 21:01:00,64.1,54.9,29.47,NW,315,0.0,0.0,72,0.00,,,0.39,WUHU216HW,2013-06-26 04:01:00,
2013-06-25 21:06:00,64.1,54.9,29.47,NW,315,0.0,0.0,72,0.00,,,0.39,WUHU216HW,2013-06-26 04:06:00,
2013-06-25 21:29:00,62.6,54.5,29.48,West,270,0.0,0.0,75,0.00,,,0.39,WUHU216HW,2013-06-26 04:29:00,
2013-06-25 21:34:00,62.5,54.4,29.48,West,270,0.0,0.0,75,0.00,,,0.39,WUHU216HW,2013-06-26 04:34:00,
2013-06-25 21:39:00,62.5,54.4,29.48,West,270,0.0,0.0,75,0.00,,,0.39,WUHU216HW,2013-06-26 04:39:00,
2013-06-25 21:59:00,61.2,54.4,29.48,NW,315,0.0,0.0,78,0.00,,,0.39,WUHU216HW,2013-06-26 04:59:00,
2013-06-25 22:04:00,61.2,54.4,29.48,NW,315,0.0,0.0,78,0.00,,,0.39,WUHU216HW,2013-06-26 05:04:00,
2013-06-25 22:09:00,61.2,54.4,29.48,NW,315,0.0,0.0,78,0.00,,,0.39,WUHU216HW,2013-06-26 05:09:00,
2013-06-25 22:29:00,61.0,54.6,29.49,West,270,0.9,0.9,79,0.00,,,0.39,WUHU216HW,2013-06-26 05:29:00,
2013-06-25 22:34:00,61.0,54.6,29.49,NW,315,0.9,0.9,79,0.00,,,0.39,WUHU216HW,2013-06-26 05:34:00,
2013-06-25 22:39:00,61.0,54.6,29.49,NW,315,0.9,0.9,79,0.00,,,0.39,WUHU216HW,2013-06-26 05:39:00,
2013-06-25 22:59:00,61.2,55.4,29.48,ESE,113,0.4,0.4,81,0.00,,,0.39,WUHU216HW,2013-06-26 05:59:00,
2013-06-25 23:04:00,61.2,55.4,29.48,East,90,0.4,0.4,81,0.00,,,0.39,WUHU216HW,2013-06-26 06:04:00,
2013-06-25 23:09:00,61.2,55.4,29.48,East,90,0.4,0.4,81,0.00,,,0.39,WUHU216HW,2013-06-26 06:09:00,
2013-06-25 23:29:00,61.7,56.2,29.48,SE,135,1.1,1.1,82,0.00,,,0.39,WUHU216HW,2013-06-26 06:29:00,
2013-06-25 23:34:00,61.7,56.2,29.48,SE,135,0.4,1.1,82,0.00,,,0.39,WUHU216HW,2013-06-26 06:34:00,
2013-06-25 23:39:00,61.7,56.2,29.48,SE,135,0.4,1.1,82,0.00,,,0.39,WUHU216HW,2013-06-26 06:39:00,
2013-06-25 23:59:00,61.9,56.3,29.48,SSE,158,0.0,0.0,82,0.00,,,0.00,WUHU216HW,2013-06-26 06:59:00,